TimeEST,TemperatureF,Dew PointF,Humidity,Sea Level PressureIn,VisibilityMPH,Wind Direction,Wind SpeedMPH,Gust SpeedMPH,PrecipitationIn,Events,Conditions,WindDirDegrees,DateUTC
12:53 AM,45.0,26.1,48,29.94,10.0,WNW,8.1,-,N/A,,Overcast,300,2014-01-16 05:53:00
1:53 AM,43.0,23.0,45,29.95,10.0,WNW,9.2,-,N/A,,Overcast,300,2014-01-16 06:53:00
2:53 AM,39.9,23.0,51,29.96,10.0,WNW,9.2,-,N/A,,Scattered Clouds,300,2014-01-16 07:53:00
3:53 AM,37.9,24.1,57,29.97,10.0,WNW,9.2,-,N/A,,Clear,300,2014-01-16 08:53:00
4:51 AM,37.4,24.8,60,29.99,10.0,NW,9.2,-,N/A,,Mostly Cloudy,310,2014-01-16 09:51:00
4:53 AM,37.0,24.1,59,29.99,10.0,NW,8.1,-,N/A,,Mostly Cloudy,310,2014-01-16 09:53:00
5:24 AM,37.0,24.1,59,30.00,10.0,WNW,8.1,-,N/A,,Mostly Cloudy,300,2014-01-16 10:24:00
5:53 AM,36.0,23.0,59,30.00,10.0,NW,6.9,-,N/A,,Scattered Clouds,310,2014-01-16 10:53:00
6:53 AM,37.0,24.1,59,30.01,10.0,NW,4.6,-,N/A,,Overcast,320,2014-01-16 11:53:00
7:53 AM,37.0,25.0,62,30.04,10.0,WNW,6.9,-,N/A,,Overcast,300,2014-01-16 12:53:00
8:53 AM,39.0,26.1,60,30.05,10.0,WNW,5.8,-,N/A,,Mostly Cloudy,300,2014-01-16 13:53:00
9:53 AM,41.0,25.0,53,30.05,10.0,North,6.9,-,N/A,,Partly Cloudy,360,2014-01-16 14:53:00
10:53 AM,43.0,26.1,51,30.06,10.0,NW,4.6,-,N/A,,Clear,310,2014-01-16 15:53:00
11:53 AM,45.0,25.0,46,30.04,10.0,Variable,4.6,-,N/A,,Clear,0,2014-01-16 16:53:00
12:53 PM,46.0,21.9,39,30.01,10.0,Variable,3.5,-,N/A,,Partly Cloudy,0,2014-01-16 17:53:00
1:53 PM,46.9,21.0,36,29.99,10.0,WNW,5.8,-,N/A,,Clear,300,2014-01-16 18:53:00
2:53 PM,48.0,21.0,34,29.99,10.0,West,12.7,-,N/A,,Clear,280,2014-01-16 19:53:00
3:53 PM,48.0,21.0,34,29.99,10.0,SW,9.2,-,N/A,,Clear,220,2014-01-16 20:53:00
4:53 PM,46.9,21.0,36,30.02,10.0,WSW,10.4,-,N/A,,Clear,250,2014-01-16 21:53:00
5:53 PM,42.1,24.1,49,30.03,10.0,SW,5.8,-,N/A,,Clear,230,2014-01-16 22:53:00
6:53 PM,39.9,24.1,53,30.06,10.0,SW,4.6,-,N/A,,Clear,220,2014-01-16 23:53:00
7:53 PM,39.0,24.1,55,30.06,10.0,SSW,5.8,-,N/A,,Clear,210,2014-01-17 00:53:00
8:53 PM,37.0,24.1,59,30.08,10.0,SSW,4.6,-,N/A,,Clear,200,2014-01-17 01:53:00
9:53 PM,37.0,21.9,54,30.08,10.0,Calm,Calm,-,N/A,,Clear,0,2014-01-17 02:53:00
10:53 PM,35.1,23.0,61,30.08,10.0,South,3.5,-,N/A,,Clear,190,2014-01-17 03:53:00
11:53 PM,34.0,24.1,67,30.10,10.0,WSW,6.9,-,N/A,,Clear,250,2014-01-17 04:53:00